TimeEST,TemperatureF,Dew PointF,Humidity,Sea Level PressureIn,VisibilityMPH,Wind Direction,Wind SpeedMPH,Gust SpeedMPH,PrecipitationIn,Events,Conditions,WindDirDegrees,DateUTC
12:18 AM,14.0,10.4,86,30.44,9.0,Calm,Calm,-,0.00,Snow,Light Snow,0,2013-12-25 05:18:00
12:51 AM,14.0,10.0,84,30.51,9.0,Calm,Calm,-,N/A,Snow,Light Snow,0,2013-12-25 05:51:00
1:51 AM,15.1,10.0,80,30.51,9.0,SSW,4.6,-,0.00,Snow,Light Snow,210,2013-12-25 06:51:00
2:51 AM,15.1,10.0,80,30.51,9.0,Calm,Calm,-,0.00,Snow,Light Snow,0,2013-12-25 07:51:00
3:51 AM,14.0,10.0,84,30.52,9.0,South,3.5,-,0.00,Snow,Light Snow,180,2013-12-25 08:51:00
4:51 AM,14.0,9.0,80,30.52,8.0,SW,5.8,-,0.00,Snow,Light Snow,220,2013-12-25 09:51:00
5:51 AM,12.9,8.1,81,30.51,9.0,South,3.5,-,0.00,Snow,Light Snow,190,2013-12-25 10:51:00
6:51 AM,12.9,9.0,84,30.51,9.0,Calm,Calm,-,N/A,Snow,Light Snow,0,2013-12-25 11:51:00
7:00 AM,12.2,8.6,85,30.43,9.0,South,3.5,-,0.00,,Overcast,180,2013-12-25 12:00:00
7:51 AM,12.9,7.0,77,30.51,10.0,South,4.6,-,0.00,,Overcast,190,2013-12-25 12:51:00
8:51 AM,14.0,8.1,77,30.48,10.0,SSE,6.9,-,N/A,,Overcast,160,2013-12-25 13:51:00
9:51 AM,16.0,8.1,71,30.48,10.0,SSE,6.9,-,N/A,,Overcast,150,2013-12-25 14:51:00
10:51 AM,18.0,9.0,68,30.45,10.0,SSE,10.4,-,N/A,,Overcast,150,2013-12-25 15:51:00
11:51 AM,19.9,9.0,62,30.43,10.0,South,8.1,-,N/A,,Overcast,180,2013-12-25 16:51:00
12:51 PM,21.0,10.0,63,30.36,10.0,SSE,10.4,19.6,N/A,,Overcast,160,2013-12-25 17:51:00
1:51 PM,23.0,10.0,58,30.34,10.0,South,10.4,-,N/A,,Overcast,170,2013-12-25 18:51:00
2:51 PM,24.1,10.9,57,30.31,10.0,SSE,6.9,-,N/A,,Overcast,160,2013-12-25 19:51:00
3:51 PM,24.1,10.9,57,30.31,10.0,SSE,6.9,-,N/A,,Overcast,160,2013-12-25 20:51:00
4:51 PM,24.1,12.0,60,30.30,10.0,SSE,5.8,-,N/A,,Overcast,160,2013-12-25 21:51:00
5:51 PM,24.1,12.0,60,30.29,10.0,SSE,6.9,-,N/A,,Overcast,150,2013-12-25 22:51:00
6:51 PM,25.0,12.9,60,30.27,10.0,SSE,6.9,-,N/A,,Overcast,160,2013-12-25 23:51:00
7:51 PM,26.1,12.9,58,30.27,10.0,South,5.8,-,N/A,,Overcast,180,2013-12-26 00:51:00
8:51 PM,26.1,14.0,60,30.25,10.0,South,8.1,-,N/A,,Overcast,190,2013-12-26 01:51:00
9:51 PM,26.1,15.1,63,30.24,10.0,South,6.9,-,N/A,,Overcast,190,2013-12-26 02:51:00
10:51 PM,26.1,17.1,69,30.22,10.0,South,4.6,-,N/A,,Overcast,180,2013-12-26 03:51:00
11:51 PM,26.1,19.0,75,30.20,10.0,South,6.9,-,N/A,,Overcast,190,2013-12-26 04:51:00